Find Starlink 11495

NORAD ID: 62275 Int'l Des: 2024-237 Owner: SPXS Country: US Constellation: starlink operational
LEOCIRCULAR

現在のビュー

3D地球を読み込み中...

About Starlink 11495

Starlink 11495 (NORAD 62275) is a starlink constellation satellite (v2 mini d2c) launched Dec 8, 2024 by SPXS of US. It operates in LEO, CIRCULAR orbit with a mass of 960.00 kg.

Starlink 11495について

説明を読み込み中...

次回通過

Passes for default location (London). Set your location on the main map for personalized predictions.

高度履歴

Loading altitude history...

軌道要素

1 62275U 24237J 26193.93904219 .00143133 00000-0 10974-2 0 9996
2 62275 43.0001 22.2863 0001615 297.3516 62.7187 15.70892376 92696
Epoch: Jul 12, 2026 • Age: 42 hours

現在のステータス

高度 360.4 km
遠地点 / 近地点 N/A
速度 7.69 km/s
衛星直下点 -23.05°S, 36.51°E
打ち上げ日 Dec 8, 2024
運用期間 1.5 years
タイプ internet

技術仕様

分類 Payload
質量 960.00 kg
乾燥質量 910.00 kg
総質量 960.00 kg
長さ 0.30 m
直径 4.10 m
スパン 29.00 m
形状 Box + pan
製造者 SPXS
バスタイプ Starlink V2MD
フェーズステータス In Orbit
所有者/国 SPXS/US

Most Searched